Weather History for Hagerstown, MD

Change the Weather History Date:

Wednesday, November 21, 2012

  Actual Average Record
Temperature  
Mean Temperature 42 °F -  
Max Temperature 55 °F 49 °F 71 °F (2007)
Min Temperature 28 °F 34 °F 25 °F (2000)
Degree Days  
Heating Degree Days 23    
Month to date heating degree days 469  
Moisture  
Dew Point 32 °F    
Average Humidity 69    
Maximum Humidity 100    
Minimum Humidity 38    
Precipitation  
Precipitation 0.00 in - - ()
Month to date precipitation 0.44  
Year to date precipitation 34.84  
Sea Level Pressure  
Sea Level Pressure 30.21 in    
Wind  
Wind Speed 1 mph (ENE)    
Max Wind Speed 8 mph    
Max Gust Speed 13 mph    
Visibility 4 miles    
Events Fog    
Averages and records for this station are not official NWS values.
T = Trace of Precipitation, MM = Missing Value Source: NWS Daily Summary

Daily Weather History Graph

Daily Weather History Graph

Search for Another Location

Airport:

Trip Planner

Search our weather history database for the weather conditions in past years. The results will help you decide how hot, cold, wet, or windy it might be!

Date:

Astronomy

Nov. 21, 2012 Rise Set
Actual Time 7:02 AM EST 4:50 PM EST
Civil Twilight 6:33 AM EST 5:20 PM EST
Nautical Twilight 6:00 AM EST 5:53 PM EST
Astronomical Twilight 5:28 AM EST 6:25 PM EST
Moon 1:05 PM EST (11/21) 12:20 AM EST (11/21)
Length of Visible Light 10h 46m
Length of Day
9h 48m
First Quarter, 61% of the Moon is Illuminated
Nov 21
First Quarter
Nov 28
Full
Dec 6
Last Quarter
Dec 13
New
Dec 20
First Quarter

Hourly Weather History & Observations

Time (EST) Temp. Windchill Dew Point Humidity Pressure Visibility Wind Dir Wind Speed Gust Speed Precip Events Conditions
12:53 AM 37.0 °F 34.5 °F 36.0 °F 96% 30.18 in 5.0 mi ENE 3.5 mph - N/A   Mostly Cloudy
1:53 AM 37.0 °F - 34.0 °F 89% 30.17 in 4.0 mi Calm Calm - N/A   Clear
2:53 AM 36.0 °F - 34.0 °F 93% 30.19 in 4.0 mi Calm Calm - N/A   Clear
3:24 AM 35.6 °F - 33.8 °F 93% 30.15 in 2.5 mi Calm Calm - N/A   Clear
3:36 AM 35.6 °F - 33.8 °F 93% 30.14 in 4.0 mi Calm Calm - N/A   Clear
3:53 AM 35.1 °F - 32.0 °F 89% 30.19 in 3.0 mi Calm Calm - N/A   Clear
4:04 AM 35.6 °F - 33.8 °F 93% 30.15 in 2.0 mi Calm Calm - N/A   Clear
4:22 AM 33.8 °F - 32.0 °F 93% 30.15 in 1.5 mi Calm Calm - N/A   Clear
4:53 AM 30.9 °F - 30.9 °F 100% 30.20 in 1.0 mi Calm Calm - N/A   Mist
4:58 AM 28.4 °F - 28.4 °F 100% 30.16 in 0.2 mi Calm Calm - N/A Fog Light Freezing Fog
5:23 AM 30.2 °F - 30.2 °F 100% 30.16 in 0.8 mi Calm Calm - N/A   Mist
5:41 AM 30.2 °F - 30.2 °F 100% 30.16 in 0.2 mi Calm Calm - N/A Fog Light Freezing Fog
5:53 AM 32.0 °F - 32.0 °F 100% 30.21 in 0.5 mi Calm Calm - N/A Fog Fog
6:00 AM 30.2 °F - 30.2 °F 100% 30.17 in 2.0 mi Calm Calm - N/A   Scattered Clouds
6:08 AM 32.0 °F - 32.0 °F 100% 30.17 in 3.0 mi Calm Calm - N/A   Partly Cloudy
6:16 AM 32.0 °F 28.7 °F 32.0 °F 100% 30.17 in 2.5 mi ESE 3.5 mph - N/A   Partly Cloudy
6:22 AM 30.2 °F - 30.2 °F 100% 30.17 in 1.0 mi Calm Calm - N/A   Mist
6:29 AM 30.2 °F - 30.2 °F 100% 30.18 in 0.5 mi Calm Calm - N/A Fog Light Freezing Fog
6:37 AM 28.4 °F 24.6 °F 28.4 °F 100% 30.18 in 0.2 mi East 3.5 mph - N/A Fog Light Freezing Fog
6:53 AM 28.9 °F 23.9 °F 28.0 °F 96% 30.23 in 0.2 mi ENE 4.6 mph - N/A Fog Light Freezing Fog
7:53 AM 28.9 °F - 28.9 °F 100% 30.25 in 1.0 mi Calm Calm - N/A   Mist
7:55 AM 28.4 °F - 28.4 °F 100% 30.20 in 3.0 mi Calm Calm - N/A   Scattered Clouds
7:59 AM 30.2 °F - 28.4 °F 93% 30.20 in 1.8 mi Calm Calm - N/A   Mostly Cloudy
8:04 AM 30.2 °F - 30.2 °F 100% 30.20 in 0.2 mi Calm Calm - N/A Fog Light Freezing Fog
8:41 AM 32.0 °F - 32.0 °F 100% 30.22 in 0.5 mi Calm Calm - N/A Fog Fog
8:45 AM 32.0 °F - 32.0 °F 100% 30.22 in 2.0 mi Calm Calm - N/A   Mostly Cloudy
8:53 AM 32.0 °F - 32.0 °F 100% 30.26 in 1.0 mi Calm Calm - N/A   Mist
9:07 AM 33.8 °F - 33.8 °F 100% 30.22 in 1.8 mi Calm Calm - N/A   Partly Cloudy
9:15 AM 35.6 °F - 35.6 °F 100% 30.22 in 3.0 mi Calm Calm - N/A   Partly Cloudy
9:29 AM 37.4 °F - 35.6 °F 93% 30.23 in 2.0 mi Calm Calm - N/A   Clear
9:48 AM 35.6 °F - 35.6 °F 100% 30.23 in 1.5 mi Calm Calm - N/A   Clear
9:53 AM 36.0 °F - 36.0 °F 100% 30.28 in 1.5 mi Calm Calm - N/A   Clear
10:00 AM 35.6 °F - 35.6 °F 100% 30.23 in 2.5 mi Calm Calm - N/A   Clear
10:37 AM 41.0 °F - 37.4 °F 87% 30.23 in 3.0 mi Calm Calm - N/A   Clear
10:53 AM 44.1 °F - 37.9 °F 79% 30.27 in 3.0 mi Calm Calm - N/A   Haze
11:53 AM 48.0 °F - 37.9 °F 68% 30.24 in 7.0 mi Calm Calm - N/A   Clear
12:53 PM 51.1 °F - 34.0 °F 52% 30.23 in 8.0 mi Calm Calm - N/A   Clear
1:53 PM 52.0 °F - 34.0 °F 50% 30.22 in 9.0 mi WNW 4.6 mph - N/A   Clear
2:53 PM 54.0 °F - 30.0 °F 40% 30.21 in 10.0 mi NNW 3.5 mph - N/A   Clear
3:53 PM 53.1 °F - 28.0 °F 38% 30.21 in 10.0 mi Calm Calm - N/A   Clear
4:53 PM 52.0 °F - 28.9 °F 41% 30.22 in 10.0 mi Calm Calm - N/A   Clear
5:53 PM 48.9 °F - 28.9 °F 46% 30.24 in 10.0 mi Calm Calm - N/A   Clear
6:53 PM 46.9 °F - 28.0 °F 48% 30.26 in 10.0 mi Calm Calm - N/A   Clear
7:53 PM 44.1 °F 42.5 °F 30.0 °F 58% 30.26 in 10.0 mi East 3.5 mph - N/A   Clear
8:53 PM 41.0 °F - 30.0 °F 65% 30.27 in 9.0 mi Calm Calm - N/A   Clear
9:53 PM 42.1 °F - 28.9 °F 60% 30.27 in 10.0 mi Calm Calm - N/A   Clear
10:53 PM 42.1 °F - 30.0 °F 62% 30.26 in 9.0 mi Calm Calm - N/A   Clear
11:53 PM 34.0 °F - 28.0 °F 79% 30.27 in 8.0 mi Calm Calm - N/A   Clear